星链-33924 (STARLINK-33924)

导读

STARLINK-33924是美国SpaceX星链项目的低轨通信卫星,于2025年5月27日发射升空。作为星链星座的组成部分,它旨在为全球提供高速低延迟互联网覆盖,尤其服务偏远地区与网络基础设施薄弱区域。该卫星延续星链标准化设计,依托批量发射推进星座组网,强化全球卫星互联网服务能力。

Basic Information
目录编号:
64149
目录名称:
STARLINK-33924
国际标识:
2025-112D
轨道中心:
EARTH
卫星名称:
星链-33924
卫星全名:
星链-33924 (STARLINK-33924)
卫星状态:
在轨 (已飞行466 天)
发射日期:
2025-05-27 UTC
国别 :
美国 (US)
星等 :
--
Orbit Information
数据来源 国际轨道数据
星历时间: 2026-09-05T09:56:18+0800
11小时前
查看轨道信息
半长轴: 6843.608km
偏心率: 0.0001805
轨道倾角: 97.284°
近地点辐角 106.244°
升交点赤经 295.344°
平近点角 253.900°
近地点: 464.235km
远地点: 466.707km
周期: 93.905分钟
每日圈数: 15.334695
Detailed Information
固有亮度:
5
最大亮度:
2.5
卫星平台:
Starlink V1.0
覆盖范围:
全球
运营商:
太空探索技术公司
运营商所在国:
美国
制造商(研发单位):
太空探索技术公司
制造商所在国:
美国
使用方式:
暂无
Satellite Introduction
Starlink 计划是 SpaceX 推出的全球卫星互联网项目,通过发射低轨道卫星,为全球尤其是偏远地区提供高速、低延迟的互联网服务。自 2019 年起,Starlink 已部署数千颗卫星,旨在缩小全球数字鸿沟,推动互联网普及。该项目还为军事、航空等行业提供通信支持,带来广泛经济效益。
2D Orbit Map
3D Orbit Map
Orbit Altitude Analysis Chart
Orbit Inclination Analysis Chart
Orbit Comprehensive Analysis Chart
View Comprehensive Chart
Conjunction Data List
Event ID Objects TCA Miss Dist (km) Collision Risk Probability Collision Risk Index (CRI) Action
CDM_260907-154905-736906-414921
2026-09-07T
15:49:08+0000
0.634 km
远距离
6.957264E-5 中风险 0.72
CDM_260907-141406-414906-540221
2026-09-07T
14:14:37+0000
0.778 km
远距离
6.31124E-5 中风险 0.71
CDM_260906-040806-414906-829621
2026-09-06T
04:08:34+0000
0.739 km
远距离
5.405262E-5 中风险 0.7
CDM_260906-014706-414906-829621
2026-09-06T
01:47:38+0000
1.140 km
极远距离
1.266868E-5 中风险 0.57
CDM_260907-124006-414906-540221
2026-09-07T
12:40:39+0000
1.692 km
极远距离
4.650537E-6 低风险 0.48
CDM_260905-175905-892706-414921
OBJECT L (58927)
2026-09-05T
17:59:02+0000
1.297 km
极远距离
3.353513E-6 低风险 0.46
CDM_260905-225705-248806-414921
2026-09-05T
22:57:47+0000
1.858 km
极远距离
2.0607E-6 低风险 0.41
CDM_260906-023406-414906-829621
2026-09-06T
02:34:37+0000
2.338 km
极远距离
1.534955E-6 低风险 0.39
CDM_260906-144802-576706-414921
2026-09-06T
14:48:58+0000
2.552 km
极远距离
1.515258E-6 低风险 0.39
CDM_260906-001306-414906-829621
2026-09-06T
00:13:41+0000
2.422 km
极远距离
1.436638E-6 低风险 0.38